Time,TemperatureF,DewpointF,PressureIn,WindDirection,WindDirectionDegrees,WindSpeedMPH,WindSpeedGustMPH,Humidity,HourlyPrecipIn,Conditions,Clouds,dailyrainin,SoftwareType,DateUTC
2013-02-12 00:00:00,34.0,-99.9,-100.00,WNW,287,25.0,35.0,-999,-99.99,,,-99.99,,2013-02-12 05:00:00,
2013-02-12 00:22:00,34.0,-99.9,-100.00,WNW,287,25.0,35.0,-999,-99.99,,,-99.99,,2013-02-12 05:22:00,
2013-02-12 00:32:00,34.0,-99.9,-100.00,WNW,287,25.0,35.0,-999,-99.99,,,-99.99,,2013-02-12 05:32:00,
2013-02-12 00:42:00,34.0,-99.9,-100.00,WNW,287,25.0,35.0,-999,-99.99,,,-99.99,,2013-02-12 05:42:00,
2013-02-12 00:52:00,34.0,-99.9,-100.00,WNW,287,25.0,35.0,-999,-99.99,,,-99.99,,2013-02-12 05:52:00,
2013-02-12 01:00:00,34.0,-99.9,-100.00,WNW,294,20.0,36.0,-999,-99.99,,,-99.99,,2013-02-12 06:00:00,
2013-02-12 01:22:00,34.0,-99.9,-100.00,WNW,294,20.0,36.0,-999,-99.99,,,-99.99,,2013-02-12 06:22:00,
2013-02-12 01:32:00,34.0,-99.9,-100.00,WNW,294,20.0,36.0,-999,-99.99,,,-99.99,,2013-02-12 06:32:00,
2013-02-12 01:43:00,34.0,-99.9,-100.00,WNW,294,20.0,36.0,-999,-99.99,,,-99.99,,2013-02-12 06:43:00,
2013-02-12 01:52:00,34.0,-99.9,-100.00,WNW,294,20.0,36.0,-999,-99.99,,,-99.99,,2013-02-12 06:52:00,
2013-02-12 02:00:00,34.0,-99.9,-100.00,WNW,289,23.0,35.0,-999,-99.99,,,-99.99,,2013-02-12 07:00:00,
2013-02-12 02:22:00,34.0,-99.9,-100.00,WNW,289,23.0,35.0,-999,-99.99,,,-99.99,,2013-02-12 07:22:00,
2013-02-12 02:32:00,34.0,-99.9,-100.00,WNW,289,23.0,35.0,-999,-99.99,,,-99.99,,2013-02-12 07:32:00,
2013-02-12 02:42:00,34.0,-99.9,-100.00,WNW,289,23.0,35.0,-999,-99.99,,,-99.99,,2013-02-12 07:42:00,
2013-02-12 02:52:00,34.0,-99.9,-100.00,WNW,289,23.0,35.0,-999,-99.99,,,-99.99,,2013-02-12 07:52:00,
2013-02-12 03:00:00,35.0,-99.9,-100.00,WNW,294,21.0,34.0,-999,-99.99,,,-99.99,,2013-02-12 08:00:00,
2013-02-12 03:22:00,35.0,-99.9,-100.00,WNW,294,21.0,34.0,-999,-99.99,,,-99.99,,2013-02-12 08:22:00,
2013-02-12 03:32:00,35.0,-99.9,-100.00,WNW,294,21.0,34.0,-999,-99.99,,,-99.99,,2013-02-12 08:32:00,
2013-02-12 03:42:00,35.0,-99.9,-100.00,WNW,294,21.0,34.0,-999,-99.99,,,-99.99,,2013-02-12 08:42:00,
2013-02-12 03:52:00,35.0,-99.9,-100.00,WNW,294,21.0,34.0,-999,-99.99,,,-99.99,,2013-02-12 08:52:00,
2013-02-12 04:00:00,35.0,-99.9,-100.00,WNW,299,25.0,37.0,-999,-99.99,,,-99.99,,2013-02-12 09:00:00,
2013-02-12 04:32:00,35.0,-99.9,-100.00,WNW,299,25.0,37.0,-999,-99.99,,,-99.99,,2013-02-12 09:32:00,
2013-02-12 04:42:00,35.0,-99.9,-100.00,WNW,299,25.0,37.0,-999,-99.99,,,-99.99,,2013-02-12 09:42:00,
2013-02-12 04:52:00,35.0,-99.9,-100.00,WNW,299,25.0,37.0,-999,-99.99,,,-99.99,,2013-02-12 09:52:00,
2013-02-12 05:00:00,35.0,-99.9,-100.00,WNW,300,19.0,31.0,-999,-99.99,,,-99.99,,2013-02-12 10:00:00,
2013-02-12 05:22:00,35.0,-99.9,-100.00,WNW,300,19.0,31.0,-999,-99.99,,,-99.99,,2013-02-12 10:22:00,
2013-02-12 05:32:00,35.0,-99.9,-100.00,WNW,300,19.0,31.0,-999,-99.99,,,-99.99,,2013-02-12 10:32:00,
2013-02-12 05:43:00,35.0,-99.9,-100.00,WNW,300,19.0,31.0,-999,-99.99,,,-99.99,,2013-02-12 10:43:00,
2013-02-12 05:52:00,35.0,-99.9,-100.00,WNW,300,19.0,31.0,-999,-99.99,,,-99.99,,2013-02-12 10:52:00,
2013-02-12 06:00:00,35.0,-99.9,-100.00,NW,307,24.0,33.0,-999,-99.99,,,-99.99,,2013-02-12 11:00:00,
2013-02-12 06:22:00,35.0,-99.9,-100.00,NW,307,24.0,33.0,-999,-99.99,,,-99.99,,2013-02-12 11:22:00,
2013-02-12 06:32:00,35.0,-99.9,-100.00,NW,307,24.0,33.0,-999,-99.99,,,-99.99,,2013-02-12 11:32:00,
2013-02-12 06:42:00,35.0,-99.9,-100.00,NW,307,24.0,33.0,-999,-99.99,,,-99.99,,2013-02-12 11:42:00,
2013-02-12 06:53:00,35.0,-99.9,-100.00,NW,307,24.0,33.0,-999,-99.99,,,-99.99,,2013-02-12 11:53:00,
2013-02-12 07:00:00,35.0,-99.9,-100.00,NW,308,20.0,31.0,-999,-99.99,,,-99.99,,2013-02-12 12:00:00,
2013-02-12 07:22:00,35.0,-99.9,-100.00,NW,308,20.0,31.0,-999,-99.99,,,-99.99,,2013-02-12 12:22:00,
2013-02-12 07:32:00,35.0,-99.9,-100.00,NW,308,20.0,31.0,-999,-99.99,,,-99.99,,2013-02-12 12:32:00,
2013-02-12 07:42:00,35.0,-99.9,-100.00,NW,308,20.0,31.0,-999,-99.99,,,-99.99,,2013-02-12 12:42:00,
2013-02-12 07:53:00,35.0,-99.9,-100.00,NW,308,20.0,31.0,-999,-99.99,,,-99.99,,2013-02-12 12:53:00,
2013-02-12 08:00:00,35.0,-99.9,-100.00,NW,317,23.0,31.0,-999,-99.99,,,-99.99,,2013-02-12 13:00:00,
2013-02-12 08:22:00,35.0,-99.9,-100.00,NW,317,23.0,31.0,-999,-99.99,,,-99.99,,2013-02-12 13:22:00,
2013-02-12 08:32:00,35.0,-99.9,-100.00,NW,317,23.0,31.0,-999,-99.99,,,-99.99,,2013-02-12 13:32:00,
2013-02-12 08:42:00,35.0,-99.9,-100.00,NW,317,23.0,31.0,-999,-99.99,,,-99.99,,2013-02-12 13:42:00,
2013-02-12 08:52:00,35.0,-99.9,-100.00,NW,317,23.0,31.0,-999,-99.99,,,-99.99,,2013-02-12 13:52:00,
2013-02-12 09:00:00,35.0,-99.9,-100.00,NW,307,17.0,25.0,-999,-99.99,,,-99.99,,2013-02-12 14:00:00,
2013-02-12 09:22:00,35.0,-99.9,-100.00,NW,307,17.0,25.0,-999,-99.99,,,-99.99,,2013-02-12 14:22:00,
2013-02-12 09:32:00,35.0,-99.9,-100.00,NW,307,17.0,25.0,-999,-99.99,,,-99.99,,2013-02-12 14:32:00,
2013-02-12 09:42:00,35.0,-99.9,-100.00,NW,307,17.0,25.0,-999,-99.99,,,-99.99,,2013-02-12 14:42:00,
2013-02-12 09:52:00,35.0,-99.9,-100.00,NW,307,17.0,25.0,-999,-99.99,,,-99.99,,2013-02-12 14:52:00,
2013-02-12 10:00:00,35.0,-99.9,-100.00,NW,312,20.0,29.0,-999,-99.99,,,-99.99,,2013-02-12 15:00:00,
2013-02-12 10:22:00,35.0,-99.9,-100.00,NW,312,20.0,29.0,-999,-99.99,,,-99.99,,2013-02-12 15:22:00,
2013-02-12 10:32:00,35.0,-99.9,-100.00,NW,312,20.0,29.0,-999,-99.99,,,-99.99,,2013-02-12 15:32:00,
2013-02-12 10:42:00,35.0,-99.9,-100.00,NW,312,20.0,29.0,-999,-99.99,,,-99.99,,2013-02-12 15:42:00,
2013-02-12 10:52:00,35.0,-99.9,-100.00,NW,312,20.0,29.0,-999,-99.99,,,-99.99,,2013-02-12 15:52:00,
2013-02-12 11:00:00,36.0,-99.9,-100.00,NW,323,14.0,26.0,-999,-99.99,,,-99.99,,2013-02-12 16:00:00,
2013-02-12 11:22:00,36.0,-99.9,-100.00,NW,323,14.0,26.0,-999,-99.99,,,-99.99,,2013-02-12 16:22:00,
2013-02-12 11:32:00,36.0,-99.9,-100.00,NW,323,14.0,26.0,-999,-99.99,,,-99.99,,2013-02-12 16:32:00,
2013-02-12 11:42:00,36.0,-99.9,-100.00,NW,323,14.0,26.0,-999,-99.99,,,-99.99,,2013-02-12 16:42:00,
2013-02-12 11:52:00,36.0,-99.9,-100.00,NW,323,14.0,26.0,-999,-99.99,,,-99.99,,2013-02-12 16:52:00,
2013-02-12 12:00:00,36.0,-99.9,-100.00,NW,319,20.0,28.0,-999,-99.99,,,-99.99,,2013-02-12 17:00:00,
2013-02-12 12:22:00,36.0,-99.9,-100.00,NW,319,20.0,28.0,-999,-99.99,,,-99.99,,2013-02-12 17:22:00,
2013-02-12 12:32:00,36.0,-99.9,-100.00,NW,319,20.0,28.0,-999,-99.99,,,-99.99,,2013-02-12 17:32:00,
2013-02-12 12:42:00,36.0,-99.9,-100.00,NW,319,20.0,28.0,-999,-99.99,,,-99.99,,2013-02-12 17:42:00,
2013-02-12 12:52:00,36.0,-99.9,-100.00,NW,319,20.0,28.0,-999,-99.99,,,-99.99,,2013-02-12 17:52:00,
2013-02-12 13:00:00,35.0,-99.9,-100.00,NW,316,16.0,27.0,-999,-99.99,,,-99.99,,2013-02-12 18:00:00,
2013-02-12 13:23:00,35.0,-99.9,-100.00,NW,316,16.0,27.0,-999,-99.99,,,-99.99,,2013-02-12 18:23:00,
2013-02-12 13:32:00,35.0,-99.9,-100.00,NW,316,16.0,27.0,-999,-99.99,,,-99.99,,2013-02-12 18:32:00,
2013-02-12 13:42:00,35.0,-99.9,-100.00,NW,316,16.0,27.0,-999,-99.99,,,-99.99,,2013-02-12 18:42:00,
2013-02-12 13:52:00,35.0,-99.9,-100.00,NW,316,16.0,27.0,-999,-99.99,,,-99.99,,2013-02-12 18:52:00,
2013-02-12 14:00:00,35.0,-99.9,-100.00,NW,324,11.0,22.0,-999,-99.99,,,-99.99,,2013-02-12 19:00:00,
2013-02-12 14:22:00,35.0,-99.9,-100.00,NW,324,11.0,22.0,-999,-99.99,,,-99.99,,2013-02-12 19:22:00,
2013-02-12 14:32:00,35.0,-99.9,-100.00,NW,324,11.0,22.0,-999,-99.99,,,-99.99,,2013-02-12 19:32:00,
2013-02-12 14:42:00,35.0,-99.9,-100.00,NW,324,11.0,22.0,-999,-99.99,,,-99.99,,2013-02-12 19:42:00,
2013-02-12 14:52:00,35.0,-99.9,-100.00,NW,324,11.0,22.0,-999,-99.99,,,-99.99,,2013-02-12 19:52:00,
2013-02-12 15:00:00,34.0,-99.9,-100.00,NW,321,15.0,28.0,-999,-99.99,,,-99.99,,2013-02-12 20:00:00,
2013-02-12 15:22:00,34.0,-99.9,-100.00,NW,321,15.0,28.0,-999,-99.99,,,-99.99,,2013-02-12 20:22:00,
2013-02-12 15:32:00,34.0,-99.9,-100.00,NW,321,15.0,28.0,-999,-99.99,,,-99.99,,2013-02-12 20:32:00,
2013-02-12 15:42:00,34.0,-99.9,-100.00,NW,321,15.0,28.0,-999,-99.99,,,-99.99,,2013-02-12 20:42:00,
2013-02-12 15:52:00,34.0,-99.9,-100.00,NW,321,15.0,28.0,-999,-99.99,,,-99.99,,2013-02-12 20:52:00,
2013-02-12 16:00:00,33.0,-99.9,-100.00,NW,320,13.0,18.0,-999,-99.99,,,-99.99,,2013-02-12 21:00:00,
2013-02-12 16:22:00,33.0,-99.9,-100.00,NW,320,13.0,18.0,-999,-99.99,,,-99.99,,2013-02-12 21:22:00,
2013-02-12 16:32:00,33.0,-99.9,-100.00,NW,320,13.0,18.0,-999,-99.99,,,-99.99,,2013-02-12 21:32:00,
2013-02-12 16:42:00,33.0,-99.9,-100.00,NW,320,13.0,18.0,-999,-99.99,,,-99.99,,2013-02-12 21:42:00,
2013-02-12 16:52:00,33.0,-99.9,-100.00,NW,320,13.0,18.0,-999,-99.99,,,-99.99,,2013-02-12 21:52:00,
2013-02-12 17:00:00,33.0,-99.9,-100.00,NW,306,13.0,24.0,-999,-99.99,,,-99.99,,2013-02-12 22:00:00,
2013-02-12 17:22:00,33.0,-99.9,-100.00,NW,306,13.0,24.0,-999,-99.99,,,-99.99,,2013-02-12 22:22:00,
2013-02-12 17:32:00,33.0,-99.9,-100.00,NW,306,13.0,24.0,-999,-99.99,,,-99.99,,2013-02-12 22:32:00,
2013-02-12 17:42:00,33.0,-99.9,-100.00,NW,306,13.0,24.0,-999,-99.99,,,-99.99,,2013-02-12 22:42:00,
2013-02-12 17:52:00,33.0,-99.9,-100.00,NW,306,13.0,24.0,-999,-99.99,,,-99.99,,2013-02-12 22:52:00,
2013-02-12 18:00:00,33.0,-99.9,-100.00,WNW,294,8.0,16.0,-999,-99.99,,,-99.99,,2013-02-12 23:00:00,
2013-02-12 18:22:00,33.0,-99.9,-100.00,WNW,294,8.0,16.0,-999,-99.99,,,-99.99,,2013-02-12 23:22:00,
2013-02-12 18:32:00,33.0,-99.9,-100.00,WNW,294,8.0,16.0,-999,-99.99,,,-99.99,,2013-02-12 23:32:00,
2013-02-12 18:42:00,33.0,-99.9,-100.00,WNW,294,8.0,16.0,-999,-99.99,,,-99.99,,2013-02-12 23:42:00,
2013-02-12 18:52:00,33.0,-99.9,-100.00,WNW,294,8.0,16.0,-999,-99.99,,,-99.99,,2013-02-12 23:52:00,
2013-02-12 19:00:00,33.0,-99.9,-100.00,WNW,299,11.0,17.0,-999,-99.99,,,-99.99,,2013-02-13 00:00:00,
2013-02-12 19:22:00,33.0,-99.9,-100.00,WNW,299,11.0,17.0,-999,-99.99,,,-99.99,,2013-02-13 00:22:00,
2013-02-12 19:32:00,33.0,-99.9,-100.00,WNW,299,11.0,17.0,-999,-99.99,,,-99.99,,2013-02-13 00:32:00,
2013-02-12 19:42:00,33.0,-99.9,-100.00,WNW,299,11.0,17.0,-999,-99.99,,,-99.99,,2013-02-13 00:42:00,
2013-02-12 19:52:00,33.0,-99.9,-100.00,WNW,299,11.0,17.0,-999,-99.99,,,-99.99,,2013-02-13 00:52:00,
2013-02-12 20:00:00,33.0,-99.9,-100.00,WNW,297,13.0,16.0,-999,-99.99,,,-99.99,,2013-02-13 01:00:00,
2013-02-12 20:22:00,33.0,-99.9,-100.00,WNW,297,13.0,16.0,-999,-99.99,,,-99.99,,2013-02-13 01:22:00,
2013-02-12 20:32:00,33.0,-99.9,-100.00,WNW,297,13.0,16.0,-999,-99.99,,,-99.99,,2013-02-13 01:32:00,
2013-02-12 20:42:00,33.0,-99.9,-100.00,WNW,297,13.0,16.0,-999,-99.99,,,-99.99,,2013-02-13 01:42:00,
2013-02-12 20:52:00,33.0,-99.9,-100.00,WNW,297,13.0,16.0,-999,-99.99,,,-99.99,,2013-02-13 01:52:00,
2013-02-12 21:00:00,33.0,-99.9,-100.00,WNW,291,11.0,16.0,-999,-99.99,,,-99.99,,2013-02-13 02:00:00,
2013-02-12 21:22:00,33.0,-99.9,-100.00,WNW,291,11.0,16.0,-999,-99.99,,,-99.99,,2013-02-13 02:22:00,
2013-02-12 21:32:00,33.0,-99.9,-100.00,WNW,291,11.0,16.0,-999,-99.99,,,-99.99,,2013-02-13 02:32:00,
2013-02-12 21:42:00,33.0,-99.9,-100.00,WNW,291,11.0,16.0,-999,-99.99,,,-99.99,,2013-02-13 02:42:00,
2013-02-12 21:52:00,33.0,-99.9,-100.00,WNW,291,11.0,16.0,-999,-99.99,,,-99.99,,2013-02-13 02:52:00,
2013-02-12 22:00:00,33.0,-99.9,-100.00,NW,305,10.0,14.0,-999,-99.99,,,-99.99,,2013-02-13 03:00:00,
2013-02-12 22:22:00,33.0,-99.9,-100.00,NW,305,10.0,14.0,-999,-99.99,,,-99.99,,2013-02-13 03:22:00,
2013-02-12 22:32:00,33.0,-99.9,-100.00,NW,305,10.0,14.0,-999,-99.99,,,-99.99,,2013-02-13 03:32:00,
2013-02-12 22:42:00,33.0,-99.9,-100.00,NW,305,10.0,14.0,-999,-99.99,,,-99.99,,2013-02-13 03:42:00,
2013-02-12 22:52:00,33.0,-99.9,-100.00,NW,305,10.0,14.0,-999,-99.99,,,-99.99,,2013-02-13 03:52:00,
2013-02-12 23:00:00,32.0,-99.9,-100.00,NW,304,6.0,11.0,-999,-99.99,,,-99.99,,2013-02-13 04:00:00,
2013-02-12 23:22:00,32.0,-99.9,-100.00,NW,304,6.0,11.0,-999,-99.99,,,-99.99,,2013-02-13 04:22:00,
2013-02-12 23:32:00,32.0,-99.9,-100.00,NW,304,6.0,11.0,-999,-99.99,,,-99.99,,2013-02-13 04:32:00,
2013-02-12 23:42:00,32.0,-99.9,-100.00,NW,304,6.0,11.0,-999,-99.99,,,-99.99,,2013-02-13 04:42:00,
2013-02-12 23:52:00,32.0,-99.9,-100.00,NW,304,6.0,11.0,-999,-99.99,,,-99.99,,2013-02-13 04:52:00,